Location: Chabe?ice
(49.7484°N, 15.0672°E)
Time: 14:48:42
(UTC+00:00)

Daily predictions for brighter satellites

Satellite Brightness Start Highest point End
(mag) Time Altitude Azimuth Time Altitude Azimuth Time Altitude Azimuth
CENTAUR R/B 3.4 18:15:49 10° NW 18:23:51 80° SW 18:32:44 10° SSE
MetOp-A 4.2 18:18:44 10° SSE 18:24:06 78° ENE 18:29:28 10° NNW
ATLAS 3B R/B 3.6 18:19:43 10° NW 18:26:10 40° NNE 18:32:51 10° E
Cosmos 2237 4.3 18:22:16 10° NNW 18:28:01 79° ENE 18:33:42 10° SSE
CZ-2C R/B 2.9 18:22:52 10° NNE 18:28:03 76° WNW 18:33:15 10° SSW
SL-16 R/B 2.7 18:23:00 10° NW 18:28:37 63° WSW 18:34:12 10° SSE
USA 215 3.4 18:22:57 10° ESE 18:29:28 74° NNE 18:36:01 10° WNW
SME Rocket 2.9 18:26:40 10° NNE 18:30:24 70° ESE 18:34:41 10° S
SJ-6B 2.7 18:26:58 10° SSE 18:30:38 63° ENE 18:34:21 10° N
Cosmos 1048 Rocket 4.3 18:29:16 10° SSW 18:34:33 77° WNW 18:39:57 10° NNE
Cosmos 2219 Rocket 3.0 18:31:22 10° NNW 18:36:39 37° NE 18:41:49 10° ESE
COSMOS 2487 4.3 18:35:19 10° SE 18:36:53 13° E 18:38:28 10° ENE
SWAS 4.5 18:36:26 10° NNW 18:40:47 80° ENE 18:45:05 10° SSE
Cosmos 2058 4.3 18:37:54 10° NNE 18:41:15 22° ENE 18:44:15 11° ESE
Cosmos 1072 Rocket 4.5 18:35:26 10° S 18:41:36 86° E 18:47:46 10° N
Cosmos 1689 Rocket 3.9 18:40:17 10° N 18:42:57 35° WNW 18:45:34 10° SW
BREEZE-M DEB (TANK) 4.0 18:42:41 10° S 18:44:56 13° SSE 18:46:07 11° SE
Cosmos 1408 3.1 18:47:35 10° N 18:50:58 37° ENE 18:53:52 13° SE
SPOT 3 Rocket 4.1 18:46:17 10° SE 18:51:09 42° ENE 18:56:02 10° N
Cosmos 1455 3.3 18:49:40 11° SE 18:52:32 24° E 18:55:36 10° NE
Cosmos 1606 Rocket 3.6 18:48:30 10° S 18:52:49 59° E 18:57:07 10° NNE
RESURS DK-1 4.5 18:54:26 10° E 18:54:26 10° E 18:54:36 10° E
BREEZE-M DEB (TANK) 3.5 18:54:01 10° W 18:55:56 20° SSW 18:58:11 11° SSE
ATLAS 5 CENTAUR R/B 1.6 18:52:36 10° SW 18:56:38 77° NW 19:01:16 10° NE
Cosmos 2237 Rocket 3.8 18:52:24 10° N 18:56:44 22° NE 19:01:03 10° E
In-Cosmos 22 Rocket 4.3 18:51:01 10° N 18:56:52 78° ENE 19:02:42 10° SSE
Cosmos 2098 Rocket 4.4 18:50:53 10° N 18:57:27 62° ENE 19:04:45 10° SSE
Cosmos 405 3.8 18:55:08 10° SSE 18:58:05 29° E 19:01:08 10° NNE
USA 186 3.3 18:55:52 10° SSW 18:58:57 38° W 19:02:00 10° NNW
ATLAS 5 CENTAUR R/B 0.5 19:01:43 10° NW 19:03:38 65° SW 19:04:42 23° SSE
IGS 5A 4.0 19:01:06 15° SE 19:04:10 41° ENE 19:08:05 10° N
Cosmos 1726 Rocket 3.5 19:00:38 10° S 19:04:57 63° E 19:09:18 10° NNE
ERS-2 3.8 19:02:43 10° N 19:06:07 37° WNW 19:09:30 10° SW
BREEZE-M DEB (TANK) 1.4 19:03:38 10° W 19:06:20 88° SSE 19:07:39 22° E
Cosmos 1092 Rocket 4.0 19:03:53 10° N 19:10:12 72° ENE 19:16:24 10° SSE
Cosmos 2333 Rocket 2.3 19:04:40 10° NNW 19:10:27 67° ENE 19:14:55 17° SE
Landsat 7 4.2 19:07:11 16° SE 19:10:45 46° ENE 19:15:19 10° N
Cosmos 1269 Rocket 4.0 19:07:41 10° SSW 19:12:59 76° ESE 19:18:19 10° NNE
NOSS 3-4 (A) 3.3 19:08:34 10° SSW 19:14:17 64° SE 19:20:30 10° NE
NOSS 3-4 (C) 3.3 19:08:38 10° SSW 19:14:23 64° SE 19:20:37 10° NE
Cosmos 2344 3.9 19:09:28 10° S 19:16:13 38° ESE 19:23:12 10° NE
SL-27 R/B 3.2 19:13:10 10° SW 19:16:39 56° WNW 19:20:05 10° NNE
Cosmos 2322 Rocket 3.6 19:12:05 10° NW 19:17:14 35° WSW 19:22:21 10° S
Cosmos 2058 Rocket 3.1 19:15:58 10° S 19:20:14 55° E 19:24:31 10° NNE
Resurs 01 Rocket 1.6 19:16:54 15° SSE 19:20:32 73° ENE 19:25:00 10° N
Ariane Rocket 3.5 19:17:47 10° S 19:22:47 61° WSW 19:27:48 10° NNW
Cosmos 1892 2.9 19:19:22 10° NNW 19:23:07 68° W 19:26:41 11° S
Meteor 2-19 Rocket 4.4 19:17:20 10° N 19:23:31 75° ENE 19:29:04 13° SSE
Cosmos 2322 3.7 19:19:50 10° NNW 19:25:32 86° ENE 19:29:39 19° SSE
SL-8 R/B 3.7 19:21:24 10° W 19:26:14 75° S 19:29:17 23° ESE
Cosmos 2228 3.8 19:22:51 10° SSW 19:27:07 54° WNW 19:31:24 10° N
ATLAS 2AS CENTAUR R/B 3.0 19:20:23 10° SSW 19:28:05 59° ESE 19:35:41 10° NE
Cosmos 1953 Rocket 4.0 19:25:34 10° NNW 19:29:54 60° W 19:34:10 10° S
Cosmos 2034 Rocket 4.4 19:25:18 10° SSW 19:31:27 65° WNW 19:37:43 10° N
Cosmos 1818 4.4 19:37:05 26° SE 19:37:48 27° ESE 19:42:18 10° ENE
MetOp-B 4.1 19:35:04 20° SSE 19:38:48 77° ENE 19:44:11 10° NNW
Meteor 2-10 Rocket 3.7 19:34:26 10° SSW 19:39:36 76° WNW 19:45:02 10° N
OBJECT-B 3.5 19:40:06 10° SW 19:42:22 18° W 19:44:39 10° NW
Cosmos 1812 Rocket 4.4 19:42:15 29° ESE 19:42:50 30° E 19:46:43 10° NNE
SPOT 5 3.6 19:45:41 28° E 19:47:03 34° ENE 19:51:15 10° N
IRIDIUM 114 4.5 19:44:22 26° SSE 19:47:05 53° E 19:52:09 10° NNE
Cosmos 1825 2.2 19:43:29 10° NNW 19:47:16 78° W 19:49:06 29° S
SL-16 R/B 3.9 19:43:22 10° N 19:47:39 21° NE 19:50:54 14° E
Cosmos 909 Rocket 4.4 19:41:55 10° S 19:47:49 41° ESE 19:53:44 10° NE
Cosmos 1992 Rocket 4.0 19:44:01 10° NNW 19:49:15 79° WSW 19:52:16 26° SSE
COSMOS 2428 2.7 19:44:20 10° NNW 19:50:08 89° WSW 19:53:18 28° SSE
Cosmos 2279 Rocket 4.0 19:46:48 19° SSE 19:51:08 58° E 19:57:13 10° NNE
Cosmos 1633 3.6 19:47:55 10° N 19:51:10 30° ENE 19:51:14 30° ENE
Cosmos 1980 4.3 19:46:06 10° NNW 19:51:34 45° NE 19:54:06 28° ESE
NOSS 0 Rocket 4.0 19:49:04 10° NNW 19:55:16 66° NE 19:58:20 31° SE
Lacrosse 5 rocket 2.3 19:52:10 10° W 19:56:11 49° NNW 20:00:25 10° NE
IRIDIUM 103 4.3 19:53:29 28° SSE 19:56:11 63° E 20:01:22 10° N
CZ-4C R/B 3.0 19:52:09 10° WSW 19:57:12 54° NW 20:03:23 10° NE
Cosmos 2026 Rocket 4.2 19:52:53 10° NNW 19:58:54 67° W 20:03:59 15° S
CARTOSAT-1 3.7 19:58:10 41° SE 19:59:21 56° ENE 20:03:36 10° N
Cosmos 1076 Rocket 3.4 19:56:28 10° N 20:00:51 73° E 20:02:11 43° SSE
Cosmos 2360 Rocket 3.9 19:56:12 10° NW 20:00:57 28° WSW 20:05:39 10° SSW
NOSS 7 (H) 4.0 19:59:28 10° SW 20:02:48 89° SE 20:03:20 58° NE
Cosmos 1809 Rocket 4.4 19:57:22 10° N 20:03:29 71° ENE 20:06:25 32° SSE
Cosmos 614 Rocket 4.2 20:05:28 39° SE 20:06:37 46° ESE 20:11:31 10° NE
Cosmos 2151 3.2 20:05:25 10° N 20:09:39 50° ENE 20:10:12 47° ESE
Cosmos 1634 Rocket 4.3 20:04:26 10° SSW 20:10:43 70° WNW 20:17:00 10° N
Cosmos 44 3.6 20:09:26 37° SSE 20:10:58 48° ESE 20:16:07 10° NE
COSMOS 2487 3.2 20:08:05 10° SW 20:11:20 50° WNW 20:14:41 10° NNE
Cosmos 2142 Rocket 4.5 20:06:14 15° S 20:11:33 88° E 20:17:58 10° N
USA 215 3.8 20:09:26 27° SSE 20:12:45 46° SW 20:19:02 10° WNW
IRIDIUM 106 4.2 20:11:46 29° S 20:14:29 88° E 20:19:44 10° N
Cosmos 2266 Rocket 4.2 20:08:36 10° N 20:14:58 58° ENE 20:17:18 38° SE
ARIANE 5 R/B 2.6 20:14:35 46° S 20:15:53 86° WSW 20:20:19 10° NNW
Terra 2.2 20:15:13 41° E 20:16:08 47° ENE 20:20:42 10° N
ERS-1 Rocket 3.0 20:15:27 45° SE 20:16:54 68° ENE 20:21:54 10° N
ATLAS 3B R/B 2.8 20:10:28 10° NW 20:17:28 77° SW 20:20:51 35° SSE
Cosmos 2058 4.1 20:14:23 10° NNW 20:18:19 40° W 20:20:27 23° SSW
Cosmos 2219 Rocket 2.9 20:15:19 10° NW 20:20:46 48° WSW 20:23:33 27° SSW
Cosmos 1655 Rocket 3.9 20:16:14 10° N 20:22:35 75° E 20:25:01 40° SSE
SPOT 1/Viking Rocket 4.0 20:22:47 29° S 20:25:19 58° W 20:30:31 10° NNW
Cosmos 405 Rocket 3.4 20:23:57 10° NNW 20:27:54 52° W 20:28:48 42° SW
Cosmos 1455 4.0 20:24:43 10° SW 20:28:01 29° WNW 20:31:22 10° N
Orbus 7S? 3.5 20:25:37 10° WSW 20:28:46 85° NW 20:35:24 10° ENE
Cosmos 2180 Rocket 4.4 20:26:03 30° S 20:29:20 84° E 20:35:31 10° N
Cosmos 1356 4.1 20:26:16 10° NNW 20:29:34 47° W 20:29:41 47° WSW
Meteor 2-14 Rocket 4.3 20:23:42 10° N 20:29:48 89° E 20:32:07 41° S
RESURS DK-1 2.2 20:30:11 64° SSW 20:30:47 90° ESE 20:34:58 10° NNE
Spot 2 Rocket 3.8 20:31:08 37° SSW 20:33:01 62° WSW 20:38:06 10° NNW
BREEZE M DEB (TANK) 2.8 20:29:32 10° WSW 20:35:26 51° SSW 20:35:26 51° SSW
BREEZE-M (TANK) 4.3 20:19:39 10° WNW 20:36:17 46° SW 20:38:06 36° S
Cosmos 2251 Rocket 3.6 20:32:43 17° SSW 20:36:56 77° WNW 20:42:19 10° NNE
JB-3 4.3 20:34:39 10° NNE 20:38:50 88° ESE 20:38:53 87° SSE
Cosmos 2237 Rocket 2.1 20:35:57 10° NNW 20:41:39 88° ENE 20:42:52 57° SSE
Cosmos 389 Rocket 3.0 20:42:04 57° NW 20:42:04 57° NW 20:45:19 10° N
Cosmos 1140 Rocket 4.0 20:42:51 41° E 20:42:51 41° E 20:46:57 10° NE
ATLAS 5 CENTAUR R/B 4.1 20:38:36 10° WNW 20:42:04 22° NNW 20:45:57 10° NNE
Meteor 2-21 Rocket 4.3 20:38:51 10° N 20:44:57 89° W 20:46:43 49° S
Cosmos 2333 Rocket 4.0 20:49:43 10° NW 20:54:13 24° WSW 20:56:57 17° SW
Cosmos 1190 Rocket 4.4 20:56:30 47° ENE 20:56:30 47° ENE 21:00:48 10° NNE
Resurs 01 Rocket 4.2 20:55:04 10° WSW 20:57:33 15° W 21:00:03 10° NW
Cosmos 2227 Rocket 2.8 21:00:01 41° E 21:00:01 41° E 21:04:25 10° NE
SeaSat 1 3.4 20:54:50 10° NE 20:58:00 34° ENE 20:58:00 34° ENE
Meteor 2-16 Rocket 4.4 20:55:19 10° NNW 21:01:30 81° W 21:03:00 54° S
Cosmos 2219 3.4 21:03:55 53° E 21:03:55 53° E 21:08:49 10° NE
COSMOS 2455 4.5 21:05:56 20° ENE 21:05:56 20° ENE 21:08:21 10° NE
Cosmos 2297 Rocket 2.1 21:07:22 64° E 21:07:22 64° E 21:12:47 10° NNE
Okean 3 Rocket 3.8 21:09:10 10° N 21:13:19 73° NNW 21:13:19 73° NNW
Cosmos-2242 3.4 21:14:50 60° WNW 21:14:50 60° WNW 21:18:57 10° N
Meteor 2-3 Rocket 4.2 21:12:40 10° NNW 21:18:19 54° W 21:19:28 46° SW
ATLAS 2AS CENTAUR R/B 3.8 21:11:39 10° WSW 21:19:20 52° NW 21:26:49 10° NE
Cosmos 1818 3.9 21:17:27 22° SW 21:20:59 66° NW 21:26:28 10° NE
Meteor 1-27 4.2 21:20:20 70° SSW 21:21:02 86° WNW 21:26:53 10° NNE
Cosmos 1763 Rocket 4.0 21:17:10 10° NNW 21:22:00 47° NE 21:22:00 47° NE
SPOT 5 4.0 21:24:54 31° WSW 21:25:10 31° W 21:29:17 10° NNW
ALOS 2 4.2 21:26:49 27° NE 21:26:49 27° NE 21:29:52 10° N
H-2A R/B 4.2 21:22:19 10° N 21:26:09 51° NW 21:26:09 51° NW
Cosmos 2344 4.0 21:22:52 10° WSW 21:30:11 60° NW 21:38:27 10° NE
Cosmos 1766 Rocket 4.3 21:27:21 10° NNW 21:30:54 49° WNW 21:30:54 49° WNW
SL-16 R/B 2.1 21:26:56 10° NNW 21:32:41 82° ENE 21:32:47 81° E
Lacrosse 5 rocket 3.2 21:32:14 10° WNW 21:36:04 31° N 21:38:17 20° NE
USA 281 4.4 21:36:04 25° E 21:38:35 33° NE 21:44:18 10° NNW
Cosmos 2221 3.9 21:41:08 32° NNE 21:41:08 32° NNE 21:43:36 10° NNE
SL-08 ROCKET BODY 4.4 21:34:16 10° N 21:40:24 70° ENE 21:40:35 70° E
CZ-4C R/B 4.5 21:42:23 10° WNW 21:47:10 26° N 21:52:47 10° NE
NOSS 3-1 (C) 4.2 21:40:17 10° NW 21:47:25 63° NE 21:50:15 42° ESE
Cosmos 407 Rocket 4.1 21:47:24 46° W 21:48:09 50° WNW 21:53:12 10° NNE
Timation 2 Rocket 4.0 21:47:57 66° SW 21:48:58 85° WNW 21:55:22 10° NNE
Meteor 2-15 4.3 21:49:30 76° SW 21:49:53 81° W 21:55:59 10° N
Cosmos 540 Rocket 4.1 21:48:23 10° NNW 21:52:58 47° NE 21:52:58 47° NE
Terra 3.4 21:54:06 25° W 21:54:06 25° W 21:58:02 10° NW
Cosmos 1745 Rocket 4.0 21:53:19 10° N 21:59:41 70° ENE 21:59:50 70° E
Cosmos 1954 Rocket 4.3 22:02:02 64° N 22:02:02 64° N 22:06:31 10° NNE
Cosmos 1709 Rocket 4.4 21:59:55 10° N 22:05:59 48° ENE 22:06:09 48° ENE
Cosmos 1943 3.9 22:00:43 10° NNW 22:06:05 44° NE 22:06:25 43° ENE
ATLAS 3B R/B 4.4 22:02:29 10° WNW 22:07:12 19° WSW 22:08:06 19° WSW
S3M 4.0 22:12:07 68° E 22:12:07 68° E 22:18:20 10° NNE
Cosmos 2237 Rocket 4.2 22:21:26 10° WNW 22:24:42 17° W 22:24:42 17° W
SeaSat 1 3.7 22:32:31 10° NNE 22:37:01 36° NW 22:37:46 34° WNW
Cosmos 2082 3.9 22:37:38 65° NW 22:37:38 65° NW 22:42:54 10° NNE
Meteor 1-25 Rocket 4.4 22:34:00 10° N 22:39:08 68° NNE 22:39:08 68° NNE
Cosmos 2227 Rocket 3.4 22:41:47 33° W 22:43:13 38° NW 22:48:29 10° NNE
Iridium 4 Rocket 4.3 22:45:49 42° NE 22:45:49 42° NE 22:49:25 10° N
Cosmos 1553 Rocket 4.3 22:45:00 52° W 22:45:14 52° WNW 22:51:11 10° N
Cosmos 1603 3.9 22:40:32 10° NNW 22:45:36 69° N 22:45:36 69° N
Cosmos 841 Rocket 4.2 22:43:08 10° NNW 22:47:03 49° NW 22:47:03 49° NW
Cosmos 1814 Rocket 4.5 22:43:00 10° NNW 22:47:20 59° NNW 22:47:20 59° NNW
Cosmos 2263 Rocket 2.9 22:49:57 43° ENE 22:49:57 43° ENE 22:53:57 10° NE
COSMOS 2455 2.9 22:49:02 71° NW 22:49:02 71° NW 22:55:01 10° NNE
Cosmos 2297 Rocket 3.8 22:49:06 21° W 22:51:40 29° NW 22:56:34 10° NNE
USA 229 DEB 3.8 22:45:03 10° NW 22:52:21 87° NE 22:53:15 72° SE
USA 229 3.8 22:45:09 10° NW 22:52:27 87° NE 22:53:22 72° SE
Aureole 1 Rocket 3.9 22:57:33 69° N 22:57:33 69° N 23:01:59 10° NNE
ALOS 2 4.5 23:04:12 25° NW 23:04:12 25° NW 23:06:25 10° NNW
Cosmos 2315 Rocket 3.9 23:04:49 84° NE 23:04:49 84° NE 23:11:00 10° N
Cosmos 2184 Rocket 4.3 23:03:40 10° N 23:09:56 55° ENE 23:10:18 54° E
NOSS 3-1 (A) 3.9 23:02:41 10° NW 23:10:06 85° SW 23:11:15 69° SSE
Cosmos 44 Rocket 4.1 23:14:26 54° N 23:14:26 54° N 23:18:43 10° NE
Lacrosse 5 rocket 3.4 23:11:46 10° NW 23:13:54 26° NW 23:13:54 26° NW
SL-16 R/B 4.2 23:12:16 10° WNW 23:14:39 17° W 23:14:39 17° W
USA 281 3.2 23:22:55 69° W 23:22:55 69° W 23:29:16 10° NNW
Thor Agena Rocket 4.1 23:20:39 10° N 23:24:51 54° NNW 23:24:51 54° NNW
Cosmos 2227 4.3 23:27:49 72° N 23:27:49 72° N 23:33:01 10° NNE
NOSS 3-1 (C) 4.5 23:31:16 10° NW 23:37:38 45° WSW 23:37:38 45° WSW
Meteor 1-14 Rocket 4.4 23:33:06 10° NNW 23:38:36 72° NW 23:38:36 72° NW
Cosmos 2074 Rocket 3.9 23:39:27 10° N 23:45:41 85° WNW 23:45:41 85° WNW
Cosmos 1943 4.5 23:44:56 10° NW 23:48:13 29° WNW 23:48:13 29° WNW
